Simultaneous Nadir Overpasses (SNOs) Predictions

Prediction of SNOs between TERRA and METOP-C Satellite Orbit:

Table of predicted SNOs for the next 14.0 days since TLE Epoch: 6/7/2025
Index Date (TERRA) Time (TERRA) Lat,Lon (TERRA) SZA (TERRA ) Date (METOP-C) Time (METOP-C) Lat,Lon (METOP-C) SZA (METOP-C ) Distance(km) Time Diff (sec)
1 06/08/2025 15:20:03 -71.31,-113.79 103.67 06/08/2025 15:18:54 -71.31,-113.80 103.76 0.59 69
2 06/08/2025 16:08:43 69.11, 56.97 78.38 06/08/2025 16:08:55 69.12, 56.93 78.38 1.55 12
3 06/11/2025 04:58:56 70.71,-137.69 76.66 06/11/2025 04:58:22 70.71,-137.70 76.61 0.49 34
4 06/11/2025 05:47:28 -68.11, 33.35 100.95 06/11/2025 05:48:12 -68.11, 33.37 100.89 1.10 44
5 06/13/2025 17:53:29 82.04, -37.07 61.90 06/13/2025 17:52:17 81.32, -37.33 61.41 80.04 72
6 06/13/2025 18:37:51 -70.29,-161.90 103.15 06/13/2025 18:37:50 -70.30,-161.93 103.17 1.68 1
7 06/13/2025 19:22:08 52.78, 19.39 92.52 06/13/2025 19:23:21 52.94, 20.24 92.89 59.81 73
8 06/16/2025 07:27:57 -71.52, 3.77 104.45 06/16/2025 07:27:10 -71.51, 3.81 104.49 1.51 47
9 06/16/2025 08:16:39 69.44, 174.44 77.48 06/16/2025 08:17:13 69.44, 174.44 77.52 0.27 34
10 06/18/2025 21:06:53 71.20, -20.53 75.74 06/18/2025 21:06:42 71.21, -20.56 75.72 1.20 11



Historial Predications of SNOs between TERRA and METOP-C
